Location: Rodson Ranch
(38.7188°N, 119.3202°W)
Time: 16:55:38
(UTC+00:00)

Cosmos 2322 Rocket - Pass Details

Date: 29 October 2020
Orbit: 832 x 851 km, 71.0° (Epoch: 23 November)

Event Time Altitude Azimuth Distance (km) Brightness Sun altitude
Rises 13:23:12 0° 343° (NNW) 3,416 5.1 -12.0°
Reaches altitude 10° 13:25:48 10° 350° (N) 2,475 4.5 -11.5°
Maximum altitude 13:31:11 43° 62° (ENE) 1,169 3.4 -10.4°
Drops below altitude 10° 13:36:31 10° 133° (SE) 2,449 5.6 -9.4°
Sets 13:39:04 0° 140° (SE) 3,376 6.2 -8.9°
